Home > Weather > Illnau-Effretikon > Past weeks

Flag for Switzerland Weather for the Past 2 Weeks in Illnau-Effretikon, Zurich, Switzerland

Now
37 °F

Chilly.


Feels Like: 37 °F
Forecast: 27 / 42 °F
Wind: 1 mph from North

Location: Zuerich-Fluntern

Current Time: Feb 11, 2016 at 7:13:02 PM

Latest Report: Feb 11, 2016 at 6:00 PM


Visibility: N/A

Pressure: 29.77 "Hg (27.93 "Hg at 514m altitude)

Humidity: 58%

Dew point: 24 °F

Location of Illnau-EffretikonLocation

Historic Weather in Illnau-Effretikon — Graph

°F

Illnau-Effretikon Temperature Yesterday

Maximum temperature yesterday: 38 °F (at 3:00 PM)
Minimum temperature yesterday: 32 °F (at 8:00 AM)
Average temperature yesterday: 35 °F

High & Low Weather Summary for the Past Weeks

 TemperatureHumidityPressure
High56 °F (Feb 1, 1:00 PM)97% (Jan 30, 5:00 AM)30.51 "Hg (Jan 30, 5:00 AM)
Low32 °F (Feb 10, 8:00 AM)44% (Feb 11, 3:00 PM)29.32 "Hg (Feb 9, 6:00 PM)
Average43 °F77%30.09 "Hg
* Reported Jan 27 5:00 PM — Feb 11 5:00 PM, Illnau-Effretikon, Weather by CustomWeather, © 2016

Note: Actual official high and low records may vary slightly from our data, if they occured in-between our weather recording intervals... More about our weather records

Advertising

Illnau-Effretikon Weather History for the Previous 24 Hours

 ConditionsComfort  
Time TempWeatherWind HumidityBarometerVisibility
5:00 PM
Thu, Feb 11
39 °FChilly.3 mph49%29.76 "HgN/A
4:00 PM40 °FChilly.6 mph45%29.77 "HgN/A
3:00 PM41 °FQuite cool.7 mph44%29.76 "HgN/A
2:00 PM42 °FQuite cool.8 mph48%29.77 "HgN/A
1:00 PM40 °FQuite cool.7 mph53%29.81 "HgN/A
12:00 PM40 °FChilly.8 mph55%29.83 "HgN/A
11:00 AM38 °FChilly.6 mph60%29.84 "HgN/A
10:00 AM36 °FChilly.5 mph67%29.85 "HgN/A
9:00 AM34 °FChilly.2 mph72%29.87 "HgN/A
8:00 AM32 °FChilly.3 mph76%29.86 "HgN/A
7:00 AM33 °FChilly.2 mph75%29.85 "HgN/A
6:00 AM33 °FChilly.5 mph79%29.86 "HgN/A
5:00 AM33 °FChilly.10 mph78%29.85 "HgN/A
4:00 AM33 °FChilly.9 mph78%29.85 "HgN/A
2:00 AM34 °FChilly.9 mph73%29.82 "HgN/A
1:00 AM34 °FChilly.13 mph73%29.81 "HgN/A
12:00 AM34 °FChilly.12 mph73%29.80 "HgN/A
10:00 PM
Wed, Feb 10
35 °FChilly.12 mph66%29.77 "HgN/A
9:00 PM36 °FChilly.15 mph64%29.75 "HgN/A
8:00 PM36 °FChilly.15 mph67%29.75 "HgN/A
7:00 PM36 °FChilly.14 mph63%29.73 "HgN/A
Weather by CustomWeather, © 2016

See weather overviewHow to use our weather pages